Location: WWIN Observatory
(34.8953°N, 91.9583°W)
Time: 19:02:07
(UTC-06:00)

First-Move - Visible Passes

Search period start: 07 December 2019 00:00
Search period end: 17 December 2019 00:00
Orbit: 577 x 668 km, 97.6° (Epoch: 07 December)

Date Brightness Start Highest point End Pass type
(mag) Time Alt. Az. Time Alt. Az. Time Alt. Az.
07 Dec ? 05:59:03 10° NNE 06:03:04 44° E 06:07:00 10° S visible
07 Dec ? 18:26:43 10° SSW 18:30:35 27° W 18:34:26 10° NW visible
08 Dec ? 06:17:06 10° NNE 06:21:18 76° E 06:25:24 10° S visible
08 Dec ? 18:45:59 10° SW 18:48:54 17° W 18:51:51 10° NW visible
09 Dec ? 06:35:20 10° N 06:39:29 62° WNW 06:43:32 10° SSW visible
09 Dec ? 17:26:17 10° SSE 17:30:47 63° ENE 17:35:16 10° N visible
10 Dec ? 05:19:05 10° ENE 05:21:17 14° E 05:23:26 10° SE visible
10 Dec ? 17:44:25 10° S 17:48:59 80° WSW 17:53:30 10° NNW visible
11 Dec ? 05:36:17 10° NE 05:39:37 23° E 05:42:53 10° SSE visible
11 Dec ? 18:02:49 10° S 18:07:13 48° W 18:11:35 10° NNW visible
12 Dec ? 05:54:01 10° NNE 05:57:54 38° E 06:01:43 10° SSE visible
12 Dec ? 18:21:31 10° SSW 18:25:29 29° W 18:29:26 10° NW visible
13 Dec ? 06:12:00 10° NNE 06:16:09 67° E 06:20:11 10° S visible
13 Dec ? 18:40:39 10° SW 18:43:48 18° W 18:46:56 10° NW visible
14 Dec ? 06:30:12 10° N 06:34:20 71° WNW 06:38:23 10° SSW visible
14 Dec ? 17:21:18 10° SSE 17:25:43 55° ENE 17:30:05 10° N visible
14 Dec ? 19:00:49 10° WSW 19:02:09 11° W 19:03:29 10° WNW visible
15 Dec ? 05:14:25 10° ENE 05:16:04 12° E 05:17:43 10° ESE visible
15 Dec ? 17:39:22 10° SSE 17:43:54 89° W 17:48:22 10° NNW visible
16 Dec ? 05:31:20 10° NE 05:34:25 20° E 05:37:28 10° SE visible
16 Dec ? 17:57:42 10° S 18:02:07 54° W 18:06:28 10° NNW visible
